Location: Great Malvern
(52.1167°N, 2.3167°W)
Time: 12:52:02
(UTC+00:00)

Cosmos 1842 - Visible Passes

Search period start: 16 January 2021 00:00
Search period end: 26 January 2021 00:00
Orbit: 520 x 537 km, 82.5° (Epoch: 15 January)

Date Brightness Start Highest point End Pass type
(mag) Time Alt. Az. Time Alt. Az. Time Alt. Az.
16 Jan 5.8 17:37:13 10° WSW 17:40:01 19° WNW 17:42:50 10° NNW visible
17 Jan 5.7 17:26:06 10° WSW 17:29:00 20° WNW 17:31:56 10° NNW visible
18 Jan 5.6 17:14:58 10° WSW 17:17:59 21° WNW 17:21:01 10° NNW visible
